Location: Roland
(31.1349°N, 85.4372°W)
Time: 03:18:02
(UTC+00:00)

Vanguard 2 Rocket - Pass Details

Date: 01 December 2021
Orbit: 554 x 3324 km, 32.9° (Epoch: 16 January)

Event Time Altitude Azimuth Distance (km) Brightness Sun altitude
Rises 01:40:43 0° 267° (W) 3,829 11.0 -38.2°
Reaches altitude 10° 01:42:53 10° 268° (W) 3,121 10.3 -38.7°
Enters shadow 01:50:02 76° 298° (WNW) 1,725 8.1 -40.2°
